Location: Prague
(50.0830°N, 14.4670°E)
Time: 10:25:47
(UTC+01:00)

CUBESAT XI-V - Visible Passes

Search period start: 01 December 2021 00:00
Search period end: 11 December 2021 00:00
Orbit: 668 x 692 km, 98.1° (Epoch: 30 November)

Date Brightness Start Highest point End Pass type
(mag) Time Alt. Az. Time Alt. Az. Time Alt. Az.
02 Dec ? 16:41:14 10° NNW 16:43:24 13° NW 16:45:35 10° W visible
05 Dec ? 16:52:13 10° NW 16:53:32 11° NW 16:54:50 10° WNW visible
10 Dec ? 16:35:55 10° NNW 16:38:27 15° NW 16:40:58 10° W visible
